Location: Newark
(39.0622°N, 106.5590°E)
Time: 12:52:10
(UTC+00:00)

UWE-3 - Pass Details

Date: 01 March 2020
Orbit: 585 x 683 km, 97.6° (Epoch: 03 April)

Event Time Altitude Azimuth Distance (km) Brightness Sun altitude
Rises 21:28:42 0° 26° (NNE) 3,052 ? -23.3°
Reaches altitude 10° 21:31:20 10° 40° (NE) 2,131 ? -22.8°
Maximum altitude 21:35:08 24° 94° (E) 1,383 ? -22.1°
Drops below altitude 10° 21:38:53 10° 149° (SSE) 2,098 ? -21.3°
Sets 21:41:27 0° 163° (SSE) 2,995 ? -20.9°
